Temperature
17 17 17 17 17 17 17 17 16 16 16 17 17 17 16 16 16 16 16 16 16 16 16 16 16 16 15 15 15 15 15 15 15 15 15 15 15 15
17 17 17 17 17 17 17 17 16 16 16 16 16 16 16 16 16 16 16 16 16 16 16 16 16 15 15 15 15 15 15 15 15 15 15 15 14 14
17 17 17 17 17 16 16 16 16 16 16 16 16 16 16 16 16 16 16 16 16 16 16 15 15 15 15 15 15 15 15 15 15 15 15 14 14 14
17 17 17 17 16 16 16 16 16 16 16 16 16 16 16 16 16 16 16 15 15 15 15 15 15 15 15 15 15 14 14 14 14 14 14 14 14 14
17 17 17 16 16 16 16 16 16 16 16 16 16 16 16 16 16 16 15 15 15 15 15 15 15 15 15 14 14 14 14 14 14 14 14 14 14 14
17 17 17 16 16 16 16 16 16 16 16 16 16 16 15 15 15 15 15 15 15 15 15 15 15 14 14 14 14 14 14 14 14 14 14 14 13 13
16 16 16 16 16 16 16 16 16 16 16 15 15 15 15 15 15 15 15 15 15 15 15 15 15 15 14 14 14 14 14 14 13 13 13 13 13 13
16 16 16 16 16 16 16 16 16 16 15 15 15 15 15 15 15 15 15 14 14 15 15 15 15 15 14 14 14 14 13 13 13 13 13 13 13 13
16 16 16 16 16 16 16 16 15 15 15 15 15 15 15 15 15 15 14 14 14 14 14 14 14 14 14 14 14 13 13 13 13 13 13 13 13 13
16 16 16 16 16 16 16 16 15 15 15 15 15 15 15 15 15 15 15 14 14 14 14 14 14 14 14 14 14 13 13 13 13 13 13 13 12 12
16 15 15 15 16 15 15 15 15 15 15 15 15 15 15 15 14 14 14 14 14 14 14 13 14 13 14 14 14 13 13 13 13 12 12 12 12 12
15 15 15 15 15 15 15 15 15 15 15 15 15 15 15 15 14 14 14 14 13 13 13 13 13 13 13 13 13 13 13 13 12 12 12 12 12 12
15 15 15 15 15 15 14 14 15 15 15 15 15 15 15 14 14 14 14 13 13 13 13 13 13 13 12 12 13 13 12 12 12 12 12 12 11 11
14 14 14 14 14 14 14 14 14 14 14 14 14 14 14 14 14 14 14 13 13 13 13 13 13 13 12 12 12 12 12 12 12 12 12 11 11 11
14 14 14 14 14 14 14 13 14 14 14 14 14 14 14 14 13 13 13 13 13 13 13 12 12 12 12 12 12 12 12 12 12 11 11 11 11 11
13 13 13 13 13 13 13 13 13 13 13 13 13 13 13 13 13 13 13 13 12 12 12 12 12 12 12 12 12 12 12 12 12 11 11 11 11 11
13 13 13 13 13 13 13 12 12 12 12 12 12 12 12 12 12 12 12 12 12 12 12 12 12 11 11 12 12 11 11 11 11 11 11 11 11 11
13 12 12 12 12 12 12 12 12 12 12 12 12 12 12 12 12 12 12 12 11 12 11 11 11 11 11 11 11 11 11 11 11 11 10 10 10 10
12 12 12 12 12 12 12 12 12 12 11 11 11 11 11 11 11 11 11 11 11 11 11 11 11 11 10 10 10 10 10 10 10 10 10 10 10 10
12 11 11 11 11 11 11 11 11 11 11 11 11 11 11 11 11 11 11 11 10 10 10 10 10 10 10 10 10 10 10 10 10 10 10 9 9 9
11 11 11 11 11 11 11 11 11 11 11 10 10 10 10 10 10 10 10 10 10 10 10 10 10 10 10 10 9 9 9 9 9 9 9 9 9 9
11 10 10 10 10 10 10 10 10 10 10 10 10 10 10 10 10 10 10 10 9 10 10 9 9 9 9 9 9 9 9 9 9 9 9 9 8 8
10 10 10 10 10 10 10 10 10 10 10 10 10 9 9 9 9 9 9 9 9 9 9 9 9 9 9 9 8 8 8 8 8 8 8 8 8 8
Wind_Speed
5 5 5 4 4 5 4 4 3 3 3 3 2 2 2 2 3 3 3 4 5 5 5 5 5 5 4 4 3 3 3 3 2 2 2 2 2 2
5 5 5 4 3 4 4 4 4 4 4 2 3 2 2 2 3 3 4 5 5 5 5 5 5 5 5 5 4 4 3 3 3 3 2 2 2 2
5 5 6 4 3 3 3 4 4 4 5 4 2 2 3 3 2 2 3 3 4 5 5 5 6 6 6 5 5 5 4 4 4 3 3 3 2 2
6 5 6 4 5 4 3 4 5 5 5 5 3 2 3 3 3 3 3 3 4 5 6 6 6 7 6 6 6 5 5 4 4 4 3 3 2 2
6 7 7 5 5 4 5 5 4 4 4 4 3 2 2 2 2 2 2 2 3 4 6 7 7 7 7 7 7 7 6 6 5 5 4 4 3 3
7 7 7 7 7 6 5 6 5 4 4 3 3 2 2 2 2 2 2 2 3 3 4 5 6 7 8 8 8 8 7 7 6 6 6 5 5 4
6 6 7 8 8 7 6 5 5 4 4 4 4 3 2 2 3 3 3 2 3 3 2 3 3 4 6 8 9 9 9 9 8 8 8 8 7 6
5 5 6 6 7 7 8 8 7 7 6 5 4 5 5 5 4 4 3 2 3 3 3 3 3 4 5 7 9 11 11 10 10 10 10 9 9 8
5 4 4 4 5 5 5 5 6 8 8 7 7 7 6 6 6 6 5 5 4 3 3 3 3 5 6 8 11 12 12 12 11 11 11 10 10 10
5 5 5 4 4 4 4 4 5 5 7 7 7 8 7 6 7 7 6 4 2 2 4 3 3 4 4 6 9 12 12 12 12 11 11 11 11 10
6 6 6 5 5 4 4 5 5 5 5 7 7 7 7 7 6 4 4 4 4 3 4 4 2 2 2 3 6 9 12 12 12 12 11 11 11 9
5 5 7 6 5 5 5 5 6 5 4 4 4 5 5 5 7 7 6 5 3 3 4 5 3 2 2 2 3 4 7 9 12 12 12 11 11 8
5 5 5 6 6 6 6 6 8 6 4 4 4 4 3 3 4 5 6 6 6 5 4 5 3 3 3 2 2 3 4 4 6 7 10 11 11 10
6 5 5 6 6 6 5 6 7 4 3 3 4 4 4 4 4 5 6 6 7 6 6 6 4 5 4 3 3 2 3 4 4 4 5 7 9 11
5 5 5 6 5 4 5 5 4 4 4 4 5 5 4 4 4 3 4 4 4 5 6 7 5 5 5 5 4 3 3 3 4 4 4 5 5 5
4 3 3 4 3 3 3 3 3 4 4 4 4 4 3 3 3 3 3 3 2 3 3 5 5 5 5 5 5 4 4 4 4 5 4 4 5 7
2 1 1 2 2 2 2 2 2 3 3 3 4 3 3 3 3 2 2 2 3 3 3 2 2 3 4 4 4 5 4 4 4 4 4 4 5 6
3 3 3 3 3 4 3 3 3 3 3 3 4 4 4 3 3 2 2 2 3 3 3 2 2 1 1 2 4 4 4 4 3 4 4 5 5 5
3 3 4 4 4 4 4 4 4 4 3 4 4 4 4 3 3 3 3 3 3 3 3 2 2 3 3 3 2 4 4 3 3 3 4 4 5 5
3 4 4 4 4 5 5 5 4 3 3 4 4 4 4 4 4 4 4 4 4 3 3 3 3 4 5 4 2 2 5 4 3 4 3 3 2 2
4 4 4 4 4 5 5 4 4 4 4 4 4 4 4 4 4 4 4 5 4 4 4 4 4 4 2 1 1 2 2 4 5 4 4 3 2 2
4 4 4 4 4 4 4 4 4 4 4 4 4 4 4 4 4 4 4 4 4 4 4 3 1 2 2 3 4 3 2 1 1 2 4 4 4 4
3 4 4 4 4 4 4 4 4 4 4 4 4 4 4 4 4 4 4 4 3 3 3 2 2 2 3 3 3 3 2 2 1 1 1 1 4 6
Wind_Direction
227 227 232 236 217 217 211 203 206 244 264 246 254 269 264 253 247 226 217 219 218 219 223 218 210 204 202 200 196 192 193 198 204 201 183 180 192 202
229 228 234 239 228 220 215 217 216 219 241 241 239 259 255 258 253 238 229 218 217 218 218 212 210 204 202 201 197 194 191 192 190 183 179 177 182 197
233 229 236 231 231 226 214 215 217 212 236 256 246 257 235 242 254 254 242 228 231 223 216 214 210 206 204 203 201 198 196 194 190 186 182 176 168 161
233 231 240 234 232 228 220 223 223 217 218 244 251 238 238 236 237 244 246 245 245 235 225 221 214 211 208 207 206 203 201 200 199 197 192 186 181 176
228 229 236 228 234 233 227 229 231 227 215 222 244 239 248 235 243 249 242 247 248 241 234 230 222 218 217 215 215 212 210 208 205 206 209 206 201 197
230 229 230 225 230 232 233 232 227 225 218 222 239 244 245 234 214 234 251 249 251 246 233 229 224 223 221 221 221 219 217 214 211 209 214 213 204 199
237 235 234 230 230 230 233 228 217 218 221 229 241 239 235 221 226 217 237 256 257 234 226 235 231 233 231 229 227 223 219 217 215 211 210 207 205 206
236 245 244 236 239 236 235 226 215 216 223 230 236 239 237 227 216 218 222 232 253 211 216 249 232 241 238 232 227 221 218 216 216 214 212 207 206 207
225 235 250 252 240 239 240 232 227 226 220 219 232 239 235 223 210 217 218 226 240 215 203 245 234 244 242 237 227 223 220 216 216 216 213 210 210 210
220 223 231 247 247 234 237 239 240 238 231 226 233 239 239 227 213 216 220 223 247 215 196 232 239 247 249 237 227 220 219 216 215 215 214 212 211 213
225 221 222 230 241 226 227 240 249 255 243 233 239 248 250 238 215 199 204 214 245 239 204 209 226 253 260 246 229 218 219 219 216 215 215 212 209 208
233 231 229 227 228 211 217 228 240 251 256 262 261 264 255 239 213 208 209 216 232 234 201 195 208 204 245 240 227 217 217 220 215 213 212 210 204 201
233 238 238 221 223 224 219 227 235 238 241 247 259 265 261 240 223 221 219 218 222 236 205 192 203 201 215 239 246 222 212 213 210 215 214 210 203 198
234 235 232 218 221 228 228 235 232 226 228 234 247 252 249 244 238 234 231 231 233 236 217 199 206 202 205 228 242 219 214 213 209 208 206 201 202 204
234 230 225 222 224 228 232 233 227 221 222 234 245 252 248 244 246 244 238 234 246 248 229 220 215 210 210 223 223 215 217 217 209 206 201 200 201 196
235 228 218 214 221 230 232 225 226 227 226 236 247 254 249 244 245 244 244 240 252 265 242 225 216 209 220 227 221 223 218 206 201 204 202 209 208 202
209 204 207 211 223 233 236 240 236 229 236 245 244 251 252 247 252 247 240 236 238 248 256 252 232 223 228 220 224 226 219 220 212 196 194 211 221 212
179 211 221 224 231 238 244 252 250 244 240 241 239 237 238 240 250 248 234 235 246 249 247 241 214 200 233 258 231 227 220 220 216 200 200 214 230 226
197 220 223 227 232 235 237 240 246 250 243 237 237 235 230 231 234 240 236 237 246 253 252 236 214 202 226 253 253 216 216 221 211 217 215 220 233 233
222 233 235 233 234 238 241 242 245 247 245 244 239 237 231 227 230 233 231 236 239 244 247 235 219 219 229 238 245 252 218 209 209 219 223 228 250 245
237 237 238 237 236 239 242 242 240 239 238 240 238 232 233 233 234 233 230 232 234 239 242 246 242 225 228 203 228 266 257 218 211 214 207 205 218 224
238 239 241 240 239 241 245 245 244 244 241 239 239 236 231 228 232 235 233 234 238 239 249 256 231 195 203 210 231 248 271 279 226 181 190 195 200 209
240 241 239 237 239 239 242 241 241 246 246 241 237 235 230 228 228 227 227 227 230 237 238 236 217 208 215 214 222 234 246 258 267 231 255 262 225 235
Height
1539 1539 1540 1540 1540 1540 1541 1541 1541 1539 1538 1538 1539 1539 1539 1538 1538 1538 1537 1537 1536 1536 1536 1535 1535 1535 1535 1535 1535 1535 1535 1534 1534 1534 1534 1534 1535 1535
1535 1536 1536 1537 1537 1537 1537 1537 1537 1537 1536 1535 1535 1536 1536 1536 1535 1535 1535 1534 1534 1534 1533 1533 1533 1533 1532 1533 1532 1532 1532 1532 1532 1532 1532 1532 1532 1532
1532 1532 1532 1533 1533 1533 1534 1534 1534 1534 1532 1532 1532 1532 1532 1532 1532 1532 1532 1532 1532 1531 1531 1530 1530 1530 1530 1530 1530 1530 1530 1529 1529 1529 1529 1529 1529 1530
1528 1528 1529 1529 1529 1529 1530 1530 1530 1530 1529 1528 1528 1528 1529 1529 1529 1528 1528 1528 1528 1528 1528 1528 1528 1527 1527 1527 1527 1527 1527 1527 1527 1527 1527 1527 1527 1527
1523 1524 1525 1525 1525 1526 1526 1526 1526 1525 1525 1524 1524 1524 1525 1525 1525 1525 1525 1525 1525 1525 1525 1525 1525 1525 1524 1524 1524 1524 1524 1524 1524 1524 1524 1525 1525 1525
1519 1520 1520 1521 1521 1521 1521 1522 1522 1521 1521 1521 1520 1520 1521 1521 1521 1521 1520 1521 1521 1521 1521 1521 1521 1521 1521 1521 1521 1521 1521 1521 1521 1521 1521 1522 1522 1522
1514 1515 1515 1516 1516 1517 1517 1517 1517 1517 1517 1516 1516 1516 1516 1517 1516 1517 1517 1517 1517 1517 1517 1517 1517 1517 1518 1517 1517 1517 1518 1518 1518 1518 1518 1518 1519 1519
1509 1510 1511 1511 1512 1512 1512 1512 1513 1512 1512 1512 1512 1512 1512 1512 1513 1513 1513 1513 1512 1513 1513 1513 1513 1513 1513 1513 1513 1514 1514 1514 1514 1514 1515 1514 1515 1515
1504 1504 1506 1506 1507 1507 1508 1508 1508 1508 1508 1509 1508 1508 1508 1508 1509 1508 1508 1508 1508 1509 1509 1508 1508 1508 1509 1509 1509 1509 1510 1510 1510 1510 1511 1511 1511 1512
1498 1499 1500 1501 1502 1502 1502 1503 1503 1503 1503 1504 1504 1504 1504 1504 1504 1505 1504 1504 1504 1504 1504 1504 1503 1503 1504 1504 1504 1505 1505 1505 1506 1506 1506 1507 1507 1508
1492 1493 1494 1495 1496 1497 1497 1497 1498 1498 1499 1499 1499 1499 1499 1500 1500 1500 1499 1499 1498 1498 1499 1499 1498 1499 1499 1499 1500 1500 1500 1501 1502 1502 1502 1503 1503 1504
1486 1488 1488 1489 1490 1491 1491 1492 1492 1492 1493 1493 1493 1494 1494 1494 1494 1494 1494 1494 1493 1493 1493 1494 1493 1494 1494 1494 1495 1495 1496 1496 1497 1498 1498 1499 1499 1500
1481 1482 1483 1483 1484 1485 1486 1486 1486 1487 1487 1487 1488 1488 1488 1488 1489 1489 1489 1489 1489 1488 1489 1488 1488 1489 1490 1489 1489 1490 1491 1492 1492 1493 1494 1495 1495 1496
1476 1477 1477 1478 1478 1479 1480 1481 1481 1482 1482 1482 1482 1482 1482 1483 1483 1484 1484 1484 1484 1484 1484 1483 1483 1483 1483 1483 1484 1485 1486 1487 1488 1489 1490 1491 1491 1492
1472 1472 1472 1473 1473 1474 1474 1475 1476 1476 1476 1476 1476 1477 1477 1478 1478 1478 1478 1478 1478 1478 1478 1478 1478 1478 1478 1478 1479 1480 1481 1482 1483 1484 1485 1486 1487 1487
1467 1467 1467 1467 1468 1469 1469 1470 1470 1471 1471 1471 1471 1471 1472 1472 1472 1472 1473 1473 1473 1473 1473 1473 1473 1473 1473 1474 1474 1474 1476 1477 1477 1479 1480 1481 1482 1483
1461 1461 1462 1462 1462 1463 1464 1464 1465 1465 1465 1466 1466 1466 1466 1466 1466 1467 1467 1467 1467 1467 1468 1468 1469 1469 1469 1470 1469 1470 1471 1471 1472 1474 1475 1475 1477 1478
1457 1456 1456 1457 1458 1458 1459 1459 1460 1460 1460 1461 1461 1461 1461 1461 1461 1462 1462 1462 1462 1463 1463 1464 1464 1464 1465 1465 1466 1465 1466 1467 1468 1469 1470 1470 1471 1472
1452 1451 1451 1452 1453 1454 1454 1454 1455 1455 1456 1455 1456 1456 1456 1456 1456 1457 1457 1457 1457 1458 1459 1459 1460 1460 1460 1460 1461 1462 1462 1462 1463 1464 1465 1466 1466 1468
1446 1447 1447 1448 1449 1449 1449 1449 1450 1450 1450 1450 1450 1451 1451 1451 1451 1451 1452 1452 1453 1454 1454 1455 1455 1456 1456 1456 1456 1457 1458 1458 1458 1459 1460 1461 1462 1464
1442 1442 1443 1443 1444 1444 1444 1444 1444 1445 1445 1445 1445 1446 1446 1446 1446 1446 1447 1448 1449 1449 1449 1450 1450 1452 1452 1453 1453 1453 1454 1455 1455 1455 1455 1456 1457 1458
1438 1438 1439 1439 1439 1440 1440 1440 1440 1440 1440 1441 1441 1441 1441 1441 1442 1442 1443 1443 1444 1444 1445 1446 1447 1447 1448 1448 1447 1448 1449 1450 1451 1451 1452 1453 1453 1454
1433 1434 1434 1434 1435 1434 1435 1435 1435 1435 1436 1436 1436 1437 1437 1437 1438 1438 1439 1439 1440 1440 1441 1441 1442 1442 1443 1443 1444 1444 1445 1446 1446 1447 1449 1450 1451 1452